contact:dominique.lefevre@mio.osupytheas.fr, maurice.libes@osupytheas.fr, didier.mallarino@osupytheas.fr
Project:EMSO http://www.emso-fr.org/EMSO-France
Depth: 2436.0 m
Title:EMSO Ligure Ouest : Data MII capteur MICROCAT
DateTime_Computer,Latitude,Longitude,Temperature,Conductivity,Pressure,DateTime_Instrument
DateTime_Computer,Latitude,Longitude,degC,S m-1,dbar,DateTime_Instrument
2022-06-15T00:01:34Z,42.805,6.029,13.3016,4.60117,2470.507,2022-6-15T02:03:17Z
2022-06-15T00:04:37Z,42.805,6.029,13.3040,4.60101,2470.483,2022-6-15T02:06:20Z
2022-06-15T00:07:40Z,42.805,6.029,13.3031,4.60097,2470.507,2022-6-15T02:09:24Z
2022-06-15T00:10:43Z,42.805,6.029,13.3024,4.60119,2470.446,2022-6-15T02:12:27Z
2022-06-15T00:13:46Z,42.805,6.029,13.3029,4.60110,2470.53,2022-6-15T02:15:30Z
2022-06-15T00:16:50Z,42.805,6.029,13.3032,4.60123,2470.483,2022-6-15T02:18:33Z
2022-06-15T00:19:53Z,42.805,6.029,13.3024,4.60114,2470.497,2022-6-15T02:21:36Z
2022-06-15T00:22:56Z,42.805,6.029,13.3014,4.60096,2470.483,2022-6-15T02:24:39Z
2022-06-15T00:25:59Z,42.805,6.029,13.3027,4.60100,2470.483,2022-6-15T02:27:42Z
2022-06-15T00:29:02Z,42.805,6.029,13.3015,4.60093,2470.52,2022-6-15T02:30:45Z
2022-06-15T00:32:05Z,42.805,6.029,13.3020,4.60117,2470.497,2022-6-15T02:33:49Z
2022-06-15T00:35:08Z,42.805,6.029,13.3025,4.60117,2470.46,2022-6-15T02:36:52Z
2022-06-15T00:38:11Z,42.805,6.029,13.3020,4.60092,2470.474,2022-6-15T02:39:55Z
2022-06-15T00:41:15Z,42.805,6.029,13.3015,4.60084,2470.497,2022-6-15T02:42:58Z
2022-06-15T00:44:18Z,42.805,6.029,13.3026,4.60117,2470.483,2022-6-15T02:46:01Z
2022-06-15T00:47:21Z,42.805,6.029,13.3024,4.60107,2470.46,2022-6-15T02:49:04Z
2022-06-15T00:50:24Z,42.805,6.029,13.3014,4.60115,2470.474,2022-6-15T02:52:07Z
2022-06-15T00:53:27Z,42.805,6.029,13.3011,4.60095,2470.437,2022-6-15T02:55:10Z
2022-06-15T00:56:30Z,42.805,6.029,13.3019,4.60095,2470.474,2022-6-15T02:58:14Z
2022-06-15T00:59:33Z,42.805,6.029,13.3011,4.60080,2470.437,2022-6-15T03:01:17Z
2022-06-15T01:02:36Z,42.805,6.029,13.3028,4.60107,2470.46,2022-6-15T03:04:20Z
2022-06-15T01:05:39Z,42.805,6.029,13.3026,4.60097,2470.497,2022-6-15T03:07:23Z
2022-06-15T01:08:43Z,42.805,6.029,13.3026,4.60119,2470.46,2022-6-15T03:10:26Z
2022-06-15T01:11:46Z,42.805,6.029,13.3022,4.60081,2470.437,2022-6-15T03:13:29Z
2022-06-15T01:14:49Z,42.805,6.029,13.3019,4.60099,2470.437,2022-6-15T03:16:32Z
2022-06-15T01:17:52Z,42.805,6.029,13.3032,4.60119,2470.427,2022-6-15T03:19:35Z
2022-06-15T01:20:55Z,42.805,6.029,13.3030,4.60099,2470.497,2022-6-15T03:22:39Z
2022-06-15T01:23:58Z,42.805,6.029,13.3029,4.60109,2470.427,2022-6-15T03:25:42Z
2022-06-15T01:27:01Z,42.805,6.029,13.3030,4.60098,2470.437,2022-6-15T03:28:45Z
2022-06-15T01:30:04Z,42.805,6.029,13.3048,4.60119,2470.437,2022-6-15T03:31:48Z
2022-06-15T01:33:08Z,42.805,6.029,13.3036,4.60121,2470.437,2022-6-15T03:34:51Z
2022-06-15T01:36:11Z,42.805,6.029,13.3026,4.60110,2470.46,2022-6-15T03:37:54Z
2022-06-15T01:39:14Z,42.805,6.029,13.3024,4.60092,2470.437,2022-6-15T03:40:57Z
2022-06-15T01:42:17Z,42.805,6.029,13.3014,4.60084,2470.413,2022-6-15T03:44:00Z
2022-06-15T01:45:20Z,42.805,6.029,13.3014,4.60105,2470.45,2022-6-15T03:47:04Z
2022-06-15T01:48:23Z,42.805,6.029,13.3024,4.60098,2470.437,2022-6-15T03:50:07Z
2022-06-15T01:51:26Z,42.805,6.029,13.3036,4.60084,2470.437,2022-6-15T03:53:10Z
2022-06-15T01:54:29Z,42.805,6.029,13.3015,4.60081,2470.437,2022-6-15T03:56:13Z
2022-06-15T01:57:33Z,42.805,6.029,13.3020,4.60089,2470.474,2022-6-15T03:59:16Z
2022-06-15T02:00:36Z,42.805,6.029,13.3021,4.60091,2470.46,2022-6-15T04:02:19Z
2022-06-15T02:03:39Z,42.805,6.029,13.3025,4.60115,2470.437,2022-6-15T04:05:22Z
2022-06-15T02:06:42Z,42.805,6.029,13.3031,4.60096,2470.437,2022-6-15T04:08:25Z
2022-06-15T02:09:45Z,42.805,6.029,13.3029,4.60119,2470.45,2022-6-15T04:11:28Z
2022-06-15T02:12:48Z,42.805,6.029,13.3019,4.60084,2470.437,2022-6-15T04:14:32Z
2022-06-15T02:15:51Z,42.805,6.029,13.3027,4.60099,2470.437,2022-6-15T04:17:35Z
2022-06-15T02:18:54Z,42.805,6.029,13.3027,4.60117,2470.39,2022-6-15T04:20:38Z
2022-06-15T02:21:58Z,42.805,6.029,13.3021,4.60094,2470.413,2022-6-15T04:23:41Z
2022-06-15T02:25:01Z,42.805,6.029,13.3019,4.60074,2470.46,2022-6-15T04:26:44Z
2022-06-15T02:28:04Z,42.805,6.029,13.3015,4.60085,2470.437,2022-6-15T04:29:47Z
2022-06-15T02:31:07Z,42.805,6.029,13.3017,4.60096,2470.413,2022-6-15T04:32:50Z
2022-06-15T02:34:10Z,42.805,6.029,13.3021,4.60079,2470.413,2022-6-15T04:35:53Z
2022-06-15T02:37:13Z,42.805,6.029,13.3025,4.60096,2470.45,2022-6-15T04:38:57Z
2022-06-15T02:40:16Z,42.805,6.029,13.3021,4.60093,2470.437,2022-6-15T04:42:00Z
2022-06-15T02:43:19Z,42.805,6.029,13.3026,4.60099,2470.474,2022-6-15T04:45:03Z
2022-06-15T02:46:22Z,42.805,6.029,13.3014,4.60101,2470.45,2022-6-15T04:48:06Z
2022-06-15T02:49:26Z,42.805,6.029,13.3019,4.60094,2470.474,2022-6-15T04:51:09Z
2022-06-15T02:52:29Z,42.805,6.029,13.3025,4.60091,2470.437,2022-6-15T04:54:12Z
2022-06-15T02:55:32Z,42.805,6.029,13.3015,4.60088,2470.474,2022-6-15T04:57:15Z
2022-06-15T02:58:35Z,42.805,6.029,13.3021,4.60090,2470.437,2022-6-15T05:00:18Z
2022-06-15T03:01:38Z,42.805,6.029,13.3025,4.60095,2470.474,2022-6-15T05:03:22Z
2022-06-15T03:04:41Z,42.805,6.029,13.3022,4.60077,2470.497,2022-6-15T05:06:25Z
2022-06-15T03:07:44Z,42.805,6.029,13.3019,4.60093,2470.45,2022-6-15T05:09:28Z
2022-06-15T03:10:47Z,42.805,6.029,13.3024,4.60102,2470.474,2022-6-15T05:12:31Z
2022-06-15T03:13:51Z,42.805,6.029,13.3025,4.60104,2470.437,2022-6-15T05:15:34Z
2022-06-15T03:16:54Z,42.805,6.029,13.3024,4.60097,2470.437,2022-6-15T05:18:37Z
2022-06-15T03:19:57Z,42.805,6.029,13.3025,4.60098,2470.474,2022-6-15T05:21:40Z
2022-06-15T03:23:00Z,42.805,6.029,13.3022,4.60094,2470.46,2022-6-15T05:24:43Z
2022-06-15T03:26:03Z,42.805,6.029,13.3021,4.60075,2470.474,2022-6-15T05:27:47Z
2022-06-15T03:29:06Z,42.805,6.029,13.3014,4.60078,2470.437,2022-6-15T05:30:50Z
2022-06-15T03:32:09Z,42.805,6.029,13.3024,4.60107,2470.46,2022-6-15T05:33:53Z
2022-06-15T03:35:12Z,42.805,6.029,13.3016,4.60089,2470.474,2022-6-15T05:36:56Z
2022-06-15T03:38:16Z,42.805,6.029,13.3031,4.60079,2470.46,2022-6-15T05:39:59Z
2022-06-15T03:41:19Z,42.805,6.029,13.3018,4.60087,2470.497,2022-6-15T05:43:02Z
2022-06-15T03:44:22Z,42.805,6.029,13.3015,4.60080,2470.46,2022-6-15T05:46:05Z
2022-06-15T03:47:25Z,42.805,6.029,13.3016,4.60096,2470.46,2022-6-15T05:49:08Z
2022-06-15T03:50:28Z,42.805,6.029,13.3021,4.60084,2470.483,2022-6-15T05:52:11Z
2022-06-15T03:53:31Z,42.805,6.029,13.3016,4.60097,2470.507,2022-6-15T05:55:15Z
2022-06-15T03:56:34Z,42.805,6.029,13.3024,4.60099,2470.483,2022-6-15T05:58:18Z
2022-06-15T03:59:37Z,42.805,6.029,13.3024,4.60099,2470.46,2022-6-15T06:01:21Z
2022-06-15T04:02:41Z,42.805,6.029,13.3035,4.60084,2470.507,2022-6-15T06:04:24Z
2022-06-15T04:05:44Z,42.805,6.029,13.3023,4.60079,2470.507,2022-6-15T06:07:27Z
2022-06-15T04:08:47Z,42.805,6.029,13.3025,4.60084,2470.483,2022-6-15T06:10:30Z
2022-06-15T04:11:50Z,42.805,6.029,13.3019,4.60075,2470.52,2022-6-15T06:13:33Z
2022-06-15T04:14:53Z,42.805,6.029,13.3019,4.60081,2470.507,2022-6-15T06:16:36Z
2022-06-15T04:17:56Z,42.805,6.029,13.3016,4.60079,2470.483,2022-6-15T06:19:40Z
2022-06-15T04:20:59Z,42.805,6.029,13.3009,4.60076,2470.507,2022-6-15T06:22:43Z
2022-06-15T04:24:02Z,42.805,6.029,13.3019,4.60069,2470.507,2022-6-15T06:25:46Z
2022-06-15T04:27:06Z,42.805,6.029,13.3014,4.60078,2470.507,2022-6-15T06:28:49Z
2022-06-15T04:30:09Z,42.805,6.029,13.3014,4.60077,2470.53,2022-6-15T06:31:52Z
2022-06-15T04:33:12Z,42.805,6.029,13.3024,4.60083,2470.53,2022-6-15T06:34:55Z
2022-06-15T04:36:15Z,42.805,6.029,13.3024,4.60062,2470.52,2022-6-15T06:37:58Z
2022-06-15T04:39:18Z,42.805,6.029,13.3017,4.60079,2470.507,2022-6-15T06:41:01Z
2022-06-15T04:42:21Z,42.805,6.029,13.3022,4.60081,2470.52,2022-6-15T06:44:05Z
2022-06-15T04:45:24Z,42.805,6.029,13.3022,4.60079,2470.507,2022-6-15T06:47:08Z
2022-06-15T04:48:27Z,42.805,6.029,13.3014,4.60080,2470.53,2022-6-15T06:50:11Z
2022-06-15T04:51:30Z,42.805,6.029,13.3015,4.60077,2470.544,2022-6-15T06:53:14Z
2022-06-15T04:54:34Z,42.805,6.029,13.3015,4.60064,2470.507,2022-6-15T06:56:17Z
2022-06-15T04:57:37Z,42.805,6.029,13.3011,4.60074,2470.53,2022-6-15T06:59:20Z
2022-06-15T05:00:40Z,42.805,6.029,13.3024,4.60080,2470.539,2022-6-15T07:02:23Z
2022-06-15T05:03:43Z,42.805,6.029,13.3015,4.60072,2470.53,2022-6-15T07:05:26Z
2022-06-15T05:06:46Z,42.805,6.029,13.3019,4.60077,2470.553,2022-6-15T07:08:30Z
2022-06-15T05:09:49Z,42.805,6.029,13.3014,4.60085,2470.53,2022-6-15T07:11:33Z
2022-06-15T05:12:52Z,42.805,6.029,13.3021,4.60076,2470.553,2022-6-15T07:14:36Z
2022-06-15T05:15:55Z,42.805,6.029,13.3014,4.60068,2470.53,2022-6-15T07:17:39Z
2022-06-15T05:18:59Z,42.805,6.029,13.3021,4.60081,2470.553,2022-6-15T07:20:42Z
2022-06-15T05:22:02Z,42.805,6.029,13.3020,4.60103,2470.567,2022-6-15T07:23:45Z
2022-06-15T05:25:05Z,42.805,6.029,13.3025,4.60083,2470.553,2022-6-15T07:26:48Z
2022-06-15T05:28:08Z,42.805,6.029,13.3019,4.60083,2470.553,2022-6-15T07:29:51Z
2022-06-15T05:31:11Z,42.805,6.029,13.3015,4.60077,2470.591,2022-6-15T07:32:55Z
2022-06-15T05:34:14Z,42.805,6.029,13.3014,4.60088,2470.567,2022-6-15T07:35:58Z
2022-06-15T05:37:17Z,42.805,6.029,13.3022,4.60073,2470.577,2022-6-15T07:39:01Z
2022-06-15T05:40:20Z,42.805,6.029,13.3014,4.60079,2470.577,2022-6-15T07:42:04Z
2022-06-15T05:43:24Z,42.805,6.029,13.3021,4.60086,2470.577,2022-6-15T07:45:07Z
2022-06-15T05:46:27Z,42.805,6.029,13.3023,4.60084,2470.553,2022-6-15T07:48:10Z
2022-06-15T05:49:30Z,42.805,6.029,13.3019,4.60084,2470.577,2022-6-15T07:51:13Z
2022-06-15T05:52:33Z,42.805,6.029,13.3011,4.60081,2470.6,2022-6-15T07:54:16Z
2022-06-15T05:55:36Z,42.805,6.029,13.3018,4.60081,2470.577,2022-6-15T07:57:19Z
2022-06-15T05:58:39Z,42.805,6.029,13.3029,4.60087,2470.577,2022-6-15T08:00:23Z
2022-06-15T06:01:42Z,42.805,6.029,13.3011,4.60074,2470.577,2022-6-15T08:03:26Z
2022-06-15T06:04:45Z,42.805,6.029,13.3015,4.60078,2470.577,2022-6-15T08:06:29Z
2022-06-15T06:07:48Z,42.805,6.029,13.3021,4.60090,2470.6,2022-6-15T08:09:32Z
2022-06-15T06:10:52Z,42.805,6.029,13.3023,4.60087,2470.6,2022-6-15T08:12:35Z
2022-06-15T06:13:55Z,42.805,6.029,13.3015,4.60074,2470.624,2022-6-15T08:15:38Z
2022-06-15T06:16:58Z,42.805,6.029,13.3021,4.60069,2470.577,2022-6-15T08:18:41Z
2022-06-15T06:20:01Z,42.805,6.029,13.3015,4.60069,2470.563,2022-6-15T08:21:44Z
2022-06-15T06:23:04Z,42.805,6.029,13.3019,4.60078,2470.637,2022-6-15T08:24:48Z
2022-06-15T06:26:07Z,42.805,6.029,13.3022,4.60087,2470.624,2022-6-15T08:27:51Z
2022-06-15T06:29:10Z,42.805,6.029,13.3024,4.60084,2470.6,2022-6-15T08:30:54Z
2022-06-15T06:32:13Z,42.805,6.029,13.3024,4.60072,2470.591,2022-6-15T08:33:57Z
2022-06-15T06:35:17Z,42.805,6.029,13.3015,4.60074,2470.6,2022-6-15T08:37:00Z
2022-06-15T06:38:20Z,42.805,6.029,13.3013,4.60074,2470.614,2022-6-15T08:40:03Z
2022-06-15T06:41:23Z,42.805,6.029,13.3016,4.60094,2470.614,2022-6-15T08:43:06Z
2022-06-15T06:44:26Z,42.805,6.029,13.3029,4.60084,2470.6,2022-6-15T08:46:09Z
2022-06-15T06:47:29Z,42.805,6.029,13.3025,4.60091,2470.624,2022-6-15T08:49:13Z
2022-06-15T06:50:32Z,42.805,6.029,13.3019,4.60064,2470.6,2022-6-15T08:52:16Z
2022-06-15T06:53:35Z,42.805,6.029,13.3012,4.60056,2470.614,2022-6-15T08:55:19Z
2022-06-15T06:56:38Z,42.805,6.029,13.3015,4.60072,2470.637,2022-6-15T08:58:22Z
2022-06-15T06:59:42Z,42.805,6.029,13.3013,4.60088,2470.661,2022-6-15T09:01:25Z
2022-06-15T07:02:45Z,42.805,6.029,13.3019,4.60086,2470.6,2022-6-15T09:04:28Z
2022-06-15T07:05:48Z,42.805,6.029,13.3014,4.60094,2470.614,2022-6-15T09:07:31Z
2022-06-15T07:08:51Z,42.805,6.029,13.3021,4.60078,2470.637,2022-6-15T09:10:34Z
2022-06-15T07:11:54Z,42.805,6.029,13.3015,4.60096,2470.637,2022-6-15T09:13:38Z
2022-06-15T07:14:57Z,42.805,6.029,13.3027,4.60101,2470.614,2022-6-15T09:16:41Z
2022-06-15T07:18:00Z,42.805,6.029,13.3019,4.60089,2470.637,2022-6-15T09:19:44Z
2022-06-15T07:21:03Z,42.805,6.029,13.3031,4.60097,2470.614,2022-6-15T09:22:47Z
2022-06-15T07:24:07Z,42.805,6.029,13.3021,4.60092,2470.637,2022-6-15T09:25:50Z
2022-06-15T07:27:10Z,42.805,6.029,13.3019,4.60083,2470.6,2022-6-15T09:28:53Z
2022-06-15T07:30:13Z,42.805,6.029,13.3014,4.60079,2470.637,2022-6-15T09:31:56Z
2022-06-15T07:33:16Z,42.805,6.029,13.3021,4.60081,2470.6,2022-6-15T09:34:59Z
2022-06-15T07:36:19Z,42.805,6.029,13.3015,4.60074,2470.637,2022-6-15T09:38:02Z
2022-06-15T07:39:22Z,42.805,6.029,13.3032,4.60085,2470.6,2022-6-15T09:41:06Z
2022-06-15T07:42:25Z,42.805,6.029,13.3023,4.60099,2470.624,2022-6-15T09:44:09Z
2022-06-15T07:45:28Z,42.805,6.029,13.3029,4.60099,2470.624,2022-6-15T09:47:12Z
2022-06-15T07:48:31Z,42.805,6.029,13.3043,4.60093,2470.577,2022-6-15T09:50:15Z
2022-06-15T07:51:35Z,42.805,6.029,13.3033,4.60097,2470.614,2022-6-15T09:53:18Z
2022-06-15T07:54:38Z,42.805,6.029,13.3019,4.60106,2470.6,2022-6-15T09:56:21Z
2022-06-15T07:57:41Z,42.805,6.029,13.3025,4.60084,2470.6,2022-6-15T09:59:24Z
2022-06-15T08:00:44Z,42.805,6.029,13.3021,4.60081,2470.614,2022-6-15T10:02:27Z
2022-06-15T08:03:47Z,42.805,6.029,13.3023,4.60087,2470.577,2022-6-15T10:05:31Z
2022-06-15T08:06:50Z,42.805,6.029,13.3009,4.60096,2470.6,2022-6-15T10:08:34Z
2022-06-15T08:09:53Z,42.805,6.029,13.3024,4.60087,2470.591,2022-6-15T10:11:37Z
2022-06-15T08:12:56Z,42.805,6.029,13.3017,4.60117,2470.591,2022-6-15T10:14:40Z
2022-06-15T08:16:00Z,42.805,6.029,13.3026,4.60104,2470.577,2022-6-15T10:17:43Z
2022-06-15T08:19:03Z,42.805,6.029,13.3037,4.60106,2470.577,2022-6-15T10:20:46Z
2022-06-15T08:22:06Z,42.805,6.029,13.3034,4.60107,2470.614,2022-6-15T10:23:49Z
2022-06-15T08:25:09Z,42.805,6.029,13.3030,4.60097,2470.6,2022-6-15T10:26:52Z
2022-06-15T08:28:12Z,42.805,6.029,13.3039,4.60104,2470.6,2022-6-15T10:29:56Z
2022-06-15T08:31:15Z,42.805,6.029,13.3015,4.60086,2470.577,2022-6-15T10:32:59Z
2022-06-15T08:34:18Z,42.805,6.029,13.3026,4.60079,2470.577,2022-6-15T10:36:02Z
2022-06-15T08:37:21Z,42.805,6.029,13.3019,4.60084,2470.614,2022-6-15T10:39:05Z
2022-06-15T08:40:25Z,42.805,6.029,13.3024,4.60110,2470.553,2022-6-15T10:42:08Z
2022-06-15T08:43:28Z,42.805,6.029,13.3035,4.60064,2470.6,2022-6-15T10:45:11Z
2022-06-15T08:46:31Z,42.805,6.029,13.3021,4.60082,2470.614,2022-6-15T10:48:14Z
2022-06-15T08:49:34Z,42.805,6.029,13.3039,4.60137,2470.577,2022-6-15T10:51:17Z
2022-06-15T08:52:37Z,42.805,6.029,13.3044,4.60095,2470.6,2022-6-15T10:54:21Z
2022-06-15T08:55:40Z,42.805,6.029,13.3031,4.60092,2470.567,2022-6-15T10:57:24Z
2022-06-15T08:58:43Z,42.805,6.029,13.3015,4.60109,2470.577,2022-6-15T11:00:27Z
2022-06-15T09:01:46Z,42.805,6.029,13.3030,4.60099,2470.614,2022-6-15T11:03:30Z
2022-06-15T09:04:50Z,42.805,6.029,13.3027,4.60105,2470.577,2022-6-15T11:06:33Z
2022-06-15T09:07:53Z,42.805,6.029,13.3034,4.60091,2470.577,2022-6-15T11:09:36Z
2022-06-15T09:10:56Z,42.805,6.029,13.3024,4.60079,2470.577,2022-6-15T11:12:39Z
2022-06-15T09:13:59Z,42.805,6.029,13.3021,4.60110,2470.553,2022-6-15T11:15:42Z
2022-06-15T09:17:02Z,42.805,6.029,13.3021,4.60110,2470.577,2022-6-15T11:18:46Z
2022-06-15T09:20:05Z,42.805,6.029,13.3026,4.60119,2470.577,2022-6-15T11:21:49Z
2022-06-15T09:23:08Z,42.805,6.029,13.3031,4.60114,2470.553,2022-6-15T11:24:52Z
2022-06-15T09:26:12Z,42.805,6.029,13.3032,4.60097,2470.553,2022-6-15T11:27:55Z
2022-06-15T09:29:15Z,42.805,6.029,13.3027,4.60104,2470.567,2022-6-15T11:30:58Z
2022-06-15T09:32:18Z,42.805,6.029,13.3032,4.60097,2470.567,2022-6-15T11:34:01Z
2022-06-15T09:35:21Z,42.805,6.029,13.3031,4.60104,2470.591,2022-6-15T11:37:04Z
2022-06-15T09:38:24Z,42.805,6.029,13.3024,4.60077,2470.539,2022-6-15T11:40:07Z
2022-06-15T09:41:27Z,42.805,6.029,13.3022,4.60075,2470.577,2022-6-15T11:43:11Z
2022-06-15T09:44:30Z,42.805,6.029,13.3013,4.60105,2470.567,2022-6-15T11:46:14Z
2022-06-15T09:47:33Z,42.805,6.029,13.3027,4.60104,2470.553,2022-6-15T11:49:17Z
2022-06-15T09:50:36Z,42.805,6.029,13.3020,4.60103,2470.553,2022-6-15T11:52:20Z
2022-06-15T09:53:40Z,42.805,6.029,13.3037,4.60081,2470.577,2022-6-15T11:55:23Z
2022-06-15T09:56:43Z,42.805,6.029,13.3029,4.60120,2470.544,2022-6-15T11:58:26Z
2022-06-15T09:59:46Z,42.805,6.029,13.3022,4.60114,2470.614,2022-6-15T12:01:29Z
2022-06-15T10:02:49Z,42.805,6.029,13.3026,4.60140,2470.544,2022-6-15T12:04:32Z
2022-06-15T10:05:52Z,42.805,6.029,13.3038,4.60127,2470.53,2022-6-15T12:07:36Z
2022-06-15T10:08:55Z,42.805,6.029,13.3040,4.60117,2470.553,2022-6-15T12:10:39Z
2022-06-15T10:11:58Z,42.805,6.029,13.3037,4.60122,2470.544,2022-6-15T12:13:42Z
2022-06-15T10:15:02Z,42.805,6.029,13.3037,4.60135,2470.53,2022-6-15T12:16:45Z
2022-06-15T10:18:05Z,42.805,6.029,13.3035,4.60119,2470.553,2022-6-15T12:19:48Z
2022-06-15T10:21:08Z,42.805,6.029,13.3053,4.60104,2470.567,2022-6-15T12:22:51Z
2022-06-15T10:24:11Z,42.805,6.029,13.3044,4.60128,2470.567,2022-6-15T12:25:54Z
2022-06-15T10:27:14Z,42.805,6.029,13.3034,4.60129,2470.53,2022-6-15T12:28:57Z
2022-06-15T10:30:17Z,42.805,6.029,13.3054,4.60129,2470.52,2022-6-15T12:32:01Z
2022-06-15T10:33:20Z,42.805,6.029,13.3044,4.60112,2470.507,2022-6-15T12:35:04Z
2022-06-15T10:36:23Z,42.805,6.029,13.3041,4.60099,2470.507,2022-6-15T12:38:07Z
2022-06-15T10:39:27Z,42.805,6.029,13.3035,4.60108,2470.544,2022-6-15T12:41:10Z
2022-06-15T10:42:30Z,42.805,6.029,13.3035,4.60110,2470.544,2022-6-15T12:44:13Z
2022-06-15T10:45:33Z,42.805,6.029,13.3027,4.60134,2470.52,2022-6-15T12:47:16Z
2022-06-15T10:48:36Z,42.805,6.029,13.3026,4.60110,2470.52,2022-6-15T12:50:19Z
2022-06-15T10:51:39Z,42.805,6.029,13.3026,4.60124,2470.497,2022-6-15T12:53:22Z
2022-06-15T10:54:42Z,42.805,6.029,13.3023,4.60111,2470.53,2022-6-15T12:56:26Z
2022-06-15T10:57:45Z,42.805,6.029,13.3041,4.60105,2470.52,2022-6-15T12:59:29Z
2022-06-15T11:00:48Z,42.805,6.029,13.3026,4.60114,2470.567,2022-6-15T13:02:32Z
2022-06-15T11:03:52Z,42.805,6.029,13.3030,4.60122,2470.52,2022-6-15T13:05:35Z
2022-06-15T11:06:55Z,42.805,6.029,13.3029,4.60125,2470.497,2022-6-15T13:08:38Z
2022-06-15T11:09:58Z,42.805,6.029,13.3024,4.60119,2470.497,2022-6-15T13:11:41Z
2022-06-15T11:13:01Z,42.805,6.029,13.3032,4.60125,2470.497,2022-6-15T13:14:44Z
2022-06-15T11:16:04Z,42.805,6.029,13.3014,4.60117,2470.52,2022-6-15T13:17:48Z
2022-06-15T11:19:07Z,42.805,6.029,13.3019,4.60117,2470.483,2022-6-15T13:20:51Z
2022-06-15T11:22:10Z,42.805,6.029,13.3024,4.60085,2470.52,2022-6-15T13:23:54Z
2022-06-15T11:25:13Z,42.805,6.029,13.3018,4.60127,2470.46,2022-6-15T13:26:57Z
2022-06-15T11:28:17Z,42.805,6.029,13.3027,4.60131,2470.483,2022-6-15T13:30:00Z
2022-06-15T11:31:20Z,42.805,6.029,13.3028,4.60116,2470.53,2022-6-15T13:33:03Z
2022-06-15T11:34:23Z,42.805,6.029,13.3026,4.60117,2470.497,2022-6-15T13:36:06Z
2022-06-15T11:37:26Z,42.805,6.029,13.3024,4.60143,2470.507,2022-6-15T13:39:09Z
2022-06-15T11:40:29Z,42.805,6.029,13.3029,4.60114,2470.474,2022-6-15T13:42:13Z
2022-06-15T11:43:32Z,42.805,6.029,13.3022,4.60097,2470.474,2022-6-15T13:45:16Z
2022-06-15T11:46:35Z,42.805,6.029,13.3030,4.60115,2470.497,2022-6-15T13:48:19Z
2022-06-15T11:49:38Z,42.805,6.029,13.3023,4.60117,2470.483,2022-6-15T13:51:22Z
2022-06-15T11:52:42Z,42.805,6.029,13.3050,4.60123,2470.46,2022-6-15T13:54:25Z
2022-06-15T11:55:45Z,42.805,6.029,13.3033,4.60132,2470.474,2022-6-15T13:57:28Z
2022-06-15T11:58:48Z,42.805,6.029,13.3030,4.60127,2470.437,2022-6-15T14:00:31Z
2022-06-15T12:01:51Z,42.805,6.029,13.3026,4.60113,2470.483,2022-6-15T14:03:34Z
2022-06-15T12:04:54Z,42.805,6.029,13.3035,4.60127,2470.483,2022-6-15T14:06:38Z
2022-06-15T12:07:57Z,42.805,6.029,13.3042,4.60091,2470.483,2022-6-15T14:09:41Z
2022-06-15T12:11:00Z,42.805,6.029,13.3031,4.60099,2470.474,2022-6-15T14:12:44Z
2022-06-15T12:14:03Z,42.805,6.029,13.3030,4.60147,2470.45,2022-6-15T14:15:47Z
2022-06-15T12:17:07Z,42.805,6.029,13.3033,4.60123,2470.413,2022-6-15T14:18:50Z
2022-06-15T12:20:10Z,42.805,6.029,13.3038,4.60122,2470.474,2022-6-15T14:21:53Z
2022-06-15T12:23:13Z,42.805,6.029,13.3025,4.60141,2470.437,2022-6-15T14:24:56Z
2022-06-15T12:26:16Z,42.805,6.029,13.3061,4.60114,2470.474,2022-6-15T14:27:59Z
2022-06-15T12:29:19Z,42.805,6.029,13.3029,4.60122,2470.437,2022-6-15T14:31:03Z
2022-06-15T12:32:22Z,42.805,6.029,13.3056,4.60109,2470.46,2022-6-15T14:34:06Z
2022-06-15T12:35:25Z,42.805,6.029,13.3034,4.60114,2470.483,2022-6-15T14:37:09Z
2022-06-15T12:38:28Z,42.805,6.029,13.3046,4.60173,2470.45,2022-6-15T14:40:12Z
2022-06-15T12:41:32Z,42.805,6.029,13.3023,4.60126,2470.437,2022-6-15T14:43:15Z
2022-06-15T12:44:35Z,42.805,6.029,13.3029,4.60152,2470.45,2022-6-15T14:46:18Z
2022-06-15T12:47:38Z,42.805,6.029,13.3031,4.60135,2470.45,2022-6-15T14:49:21Z
2022-06-15T12:50:41Z,42.805,6.029,13.3027,4.60127,2470.413,2022-6-15T14:52:24Z
2022-06-15T12:53:44Z,42.805,6.029,13.3036,4.60119,2470.45,2022-6-15T14:55:28Z
2022-06-15T12:56:47Z,42.805,6.029,13.3031,4.60108,2470.46,2022-6-15T14:58:31Z
2022-06-15T12:59:50Z,42.805,6.029,13.3041,4.60137,2470.437,2022-6-15T15:01:34Z
2022-06-15T13:02:53Z,42.805,6.029,13.3025,4.60132,2470.483,2022-6-15T15:04:37Z
2022-06-15T13:05:57Z,42.805,6.029,13.3034,4.60137,2470.46,2022-6-15T15:07:40Z
2022-06-15T13:09:00Z,42.805,6.029,13.3031,4.60129,2470.437,2022-6-15T15:10:43Z
2022-06-15T13:12:03Z,42.805,6.029,13.3084,4.60163,2470.474,2022-6-15T15:13:46Z
2022-06-15T13:15:06Z,42.805,6.029,13.3041,4.60119,2470.46,2022-6-15T15:16:49Z
2022-06-15T13:18:09Z,42.805,6.029,13.3040,4.60126,2470.427,2022-6-15T15:19:53Z
2022-06-15T13:21:12Z,42.805,6.029,13.3034,4.60162,2470.437,2022-6-15T15:22:56Z
2022-06-15T13:24:15Z,42.805,6.029,13.3033,4.60129,2470.45,2022-6-15T15:25:59Z
2022-06-15T13:27:18Z,42.805,6.029,13.3039,4.60112,2470.46,2022-6-15T15:29:02Z
2022-06-15T13:30:22Z,42.805,6.029,13.3039,4.60131,2470.437,2022-6-15T15:32:05Z
2022-06-15T13:33:25Z,42.805,6.029,13.3051,4.60079,2470.427,2022-6-15T15:35:08Z
2022-06-15T13:36:28Z,42.805,6.029,13.3056,4.60061,2470.413,2022-6-15T15:38:11Z
2022-06-15T13:39:31Z,42.805,6.029,13.3061,4.60117,2470.437,2022-6-15T15:41:14Z
2022-06-15T13:42:34Z,42.805,6.029,13.3036,4.60070,2470.46,2022-6-15T15:44:18Z
2022-06-15T13:45:37Z,42.805,6.029,13.3042,4.60094,2470.413,2022-6-15T15:47:21Z
2022-06-15T13:48:40Z,42.805,6.029,13.3044,4.60061,2470.437,2022-6-15T15:50:24Z
2022-06-15T13:51:44Z,42.805,6.029,13.3040,4.60095,2470.427,2022-6-15T15:53:27Z
2022-06-15T13:54:47Z,42.805,6.029,13.3019,4.60062,2470.474,2022-6-15T15:56:30Z
2022-06-15T13:57:50Z,42.805,6.029,13.3060,4.60060,2470.474,2022-6-15T15:59:33Z
2022-06-15T14:00:53Z,42.805,6.029,13.3045,4.60070,2470.45,2022-6-15T16:02:36Z
2022-06-15T14:03:56Z,42.805,6.029,13.3031,4.60080,2470.437,2022-6-15T16:05:40Z
2022-06-15T14:06:59Z,42.805,6.029,13.3057,4.60109,2470.437,2022-6-15T16:08:43Z
2022-06-15T14:10:02Z,42.805,6.029,13.3046,4.60099,2470.437,2022-6-15T16:11:46Z
2022-06-15T14:13:05Z,42.805,6.029,13.3047,4.60066,2470.46,2022-6-15T16:14:49Z
2022-06-15T14:16:09Z,42.805,6.029,13.3049,4.60078,2470.437,2022-6-15T16:17:52Z
2022-06-15T14:19:12Z,42.805,6.029,13.3048,4.60081,2470.45,2022-6-15T16:20:55Z
2022-06-15T14:22:15Z,42.805,6.029,13.3014,4.60066,2470.437,2022-6-15T16:23:58Z
2022-06-15T14:25:18Z,42.805,6.029,13.3066,4.60055,2470.46,2022-6-15T16:27:01Z
2022-06-15T14:28:21Z,42.805,6.029,13.3054,4.60069,2470.46,2022-6-15T16:30:04Z
2022-06-15T14:31:24Z,42.805,6.029,13.3027,4.60049,2470.437,2022-6-15T16:33:08Z
2022-06-15T14:34:27Z,42.805,6.029,13.3036,4.60056,2470.474,2022-6-15T16:36:11Z
2022-06-15T14:37:30Z,42.805,6.029,13.3006,4.60044,2470.437,2022-6-15T16:39:14Z
2022-06-15T14:40:34Z,42.805,6.029,13.3026,4.60065,2470.437,2022-6-15T16:42:17Z
2022-06-15T14:43:37Z,42.805,6.029,13.3041,4.60089,2470.46,2022-6-15T16:45:20Z
2022-06-15T14:46:40Z,42.805,6.029,13.3046,4.60067,2470.46,2022-6-15T16:48:23Z
2022-06-15T14:49:43Z,42.805,6.029,13.3048,4.60091,2470.474,2022-6-15T16:51:26Z
2022-06-15T14:52:46Z,42.805,6.029,13.3050,4.60054,2470.46,2022-6-15T16:54:30Z
2022-06-15T14:55:49Z,42.805,6.029,13.3024,4.60070,2470.483,2022-6-15T16:57:33Z
2022-06-15T14:58:52Z,42.805,6.029,13.3039,4.60078,2470.46,2022-6-15T17:00:36Z
2022-06-15T15:01:55Z,42.805,6.029,13.3031,4.60062,2470.45,2022-6-15T17:03:39Z
2022-06-15T15:04:59Z,42.805,6.029,13.3043,4.60082,2470.413,2022-6-15T17:06:42Z
2022-06-15T15:08:02Z,42.805,6.029,13.3029,4.60086,2470.46,2022-6-15T17:09:45Z
2022-06-15T15:11:05Z,42.805,6.029,13.3038,4.60092,2470.46,2022-6-15T17:12:48Z
2022-06-15T15:14:08Z,42.805,6.029,13.3024,4.60052,2470.483,2022-6-15T17:15:51Z